Location: Elstree
(51.6403°N, 0.2969°W)
Time: 01:59:16
(UTC+00:00)

GP-B - Pass Details

Date: 03 March 2021
Orbit: 631 x 634 km, 89.8° (Epoch: 11 April)

Event Time Altitude Azimuth Distance (km) Brightness Sun altitude
Rises 19:22:54 0° 179° (S) 2,920 6.4 -15.9°
Reaches altitude 10° 19:25:06 10° 180° (S) 2,017 5.6 -16.2°
Maximum altitude 19:29:33 83° 270° (W) 647 3.1 -16.9°
Drops below altitude 10° 19:34:02 10° 358° (N) 2,034 5.9 -17.6°
Sets 19:36:16 0° 359° (N) 2,948 6.7 -17.9°
